TimeMST,TemperatureF,Dew PointF,Humidity,Sea Level PressureIn,VisibilityMPH,Wind Direction,Wind SpeedMPH,Gust SpeedMPH,PrecipitationIn,Events,Conditions,WindDirDegrees,DateUTC
12:15 AM,32.0,24.8,75,30.03,10.0,Calm,Calm,-,N/A,,Mostly Cloudy,0,2014-02-01 07:15:00
12:35 AM,30.2,23.0,75,30.04,10.0,NW,3.5,-,N/A,,Mostly Cloudy,310,2014-02-01 07:35:00
12:55 AM,30.2,23.0,75,30.04,10.0,Calm,Calm,-,N/A,,Mostly Cloudy,0,2014-02-01 07:55:00
1:15 AM,30.2,23.0,75,30.04,10.0,WNW,3.5,-,N/A,,Partly Cloudy,290,2014-02-01 08:15:00
1:35 AM,30.2,23.0,75,30.04,10.0,ENE,5.8,-,N/A,,Mostly Cloudy,70,2014-02-01 08:35:00
1:55 AM,30.2,23.0,75,30.04,10.0,Calm,Calm,-,N/A,,Overcast,0,2014-02-01 08:55:00
2:15 AM,30.2,23.0,75,30.05,10.0,Calm,Calm,-,N/A,,Mostly Cloudy,0,2014-02-01 09:15:00
2:35 AM,30.2,23.0,75,30.05,10.0,Calm,Calm,-,N/A,,Overcast,0,2014-02-01 09:35:00
2:55 AM,30.2,23.0,75,30.05,10.0,Calm,Calm,-,N/A,,Overcast,0,2014-02-01 09:55:00
3:15 AM,30.2,24.8,80,30.06,10.0,Calm,Calm,-,N/A,,Overcast,0,2014-02-01 10:15:00
3:35 AM,30.2,23.0,75,30.06,10.0,Calm,Calm,-,N/A,,Overcast,0,2014-02-01 10:35:00
3:55 AM,30.2,24.8,80,30.06,10.0,Calm,Calm,-,N/A,,Overcast,0,2014-02-01 10:55:00
4:15 AM,30.2,23.0,75,30.06,10.0,SSW,3.5,-,N/A,,Overcast,210,2014-02-01 11:15:00
4:35 AM,30.2,21.2,69,30.07,10.0,Calm,Calm,-,N/A,,Overcast,0,2014-02-01 11:35:00
4:55 AM,30.2,24.8,80,30.07,10.0,Calm,Calm,-,N/A,,Overcast,0,2014-02-01 11:55:00
5:15 AM,30.2,23.0,75,30.07,10.0,Calm,Calm,-,N/A,,Overcast,0,2014-02-01 12:15:00
5:35 AM,30.2,24.8,80,30.08,10.0,Calm,Calm,-,N/A,,Overcast,0,2014-02-01 12:35:00
5:55 AM,30.2,24.8,80,30.08,10.0,Calm,Calm,-,N/A,,Overcast,0,2014-02-01 12:55:00
6:15 AM,30.2,23.0,75,30.08,10.0,Calm,Calm,-,N/A,,Overcast,0,2014-02-01 13:15:00
6:35 AM,30.2,24.8,80,30.09,10.0,Calm,Calm,-,N/A,,Overcast,0,2014-02-01 13:35:00
6:55 AM,30.2,24.8,80,30.09,10.0,Calm,Calm,-,N/A,,Overcast,0,2014-02-01 13:55:00
7:15 AM,30.2,23.0,75,30.09,10.0,Calm,Calm,-,N/A,,Overcast,0,2014-02-01 14:15:00
7:35 AM,30.2,23.0,75,30.09,10.0,Calm,Calm,-,N/A,,Overcast,0,2014-02-01 14:35:00
7:55 AM,30.2,23.0,75,30.10,9.0,Calm,Calm,-,N/A,,Overcast,0,2014-02-01 14:55:00
8:15 AM,30.2,23.0,75,30.11,10.0,Calm,Calm,-,N/A,,Overcast,0,2014-02-01 15:15:00
8:35 AM,30.2,24.8,80,30.11,8.0,Calm,Calm,-,N/A,,Overcast,0,2014-02-01 15:35:00
8:55 AM,30.2,23.0,75,30.12,10.0,Calm,Calm,-,N/A,,Overcast,0,2014-02-01 15:55:00
9:15 AM,30.2,24.8,80,30.12,10.0,Calm,Calm,-,N/A,,Overcast,0,2014-02-01 16:15:00
9:35 AM,30.2,24.8,80,30.13,10.0,Calm,Calm,-,N/A,,Overcast,0,2014-02-01 16:35:00
9:55 AM,32.0,24.8,75,30.13,10.0,North,3.5,-,N/A,,Overcast,360,2014-02-01 16:55:00
10:15 AM,33.8,24.8,70,30.14,10.0,North,3.5,-,N/A,,Overcast,10,2014-02-01 17:15:00
10:35 AM,33.8,24.8,70,30.14,10.0,Calm,Calm,-,N/A,,Overcast,0,2014-02-01 17:35:00
10:55 AM,33.8,24.8,70,30.14,10.0,North,3.5,-,N/A,,Overcast,350,2014-02-01 17:55:00
11:15 AM,33.8,24.8,70,30.14,10.0,North,4.6,-,N/A,,Overcast,350,2014-02-01 18:15:00
11:35 AM,35.6,24.8,65,30.14,10.0,North,3.5,-,N/A,,Mostly Cloudy,10,2014-02-01 18:35:00
11:55 AM,37.4,24.8,60,30.14,10.0,North,4.6,-,N/A,,Mostly Cloudy,10,2014-02-01 18:55:00
12:15 PM,37.4,26.6,65,30.14,10.0,ENE,3.5,-,N/A,,Scattered Clouds,60,2014-02-01 19:15:00
12:35 PM,37.4,24.8,60,30.13,10.0,North,5.8,-,N/A,,Mostly Cloudy,360,2014-02-01 19:35:00
12:55 PM,37.4,24.8,60,30.13,10.0,NW,5.8,-,N/A,,Overcast,320,2014-02-01 19:55:00
1:15 PM,39.2,24.8,56,30.12,10.0,NW,8.1,-,N/A,,Overcast,320,2014-02-01 20:15:00
1:35 PM,39.2,26.6,61,30.12,10.0,NNW,5.8,-,N/A,,Overcast,330,2014-02-01 20:35:00
1:55 PM,39.2,26.6,61,30.11,10.0,North,6.9,-,N/A,,Overcast,360,2014-02-01 20:55:00
2:15 PM,39.2,26.6,61,30.11,10.0,North,8.1,-,N/A,,Mostly Cloudy,350,2014-02-01 21:15:00
2:35 PM,39.2,26.6,61,30.10,10.0,North,8.1,-,N/A,,Overcast,360,2014-02-01 21:35:00
2:55 PM,39.2,26.6,61,30.10,10.0,North,6.9,-,N/A,,Overcast,350,2014-02-01 21:55:00
3:15 PM,39.2,26.6,61,30.10,10.0,NNW,5.8,-,N/A,,Mostly Cloudy,340,2014-02-01 22:15:00
3:35 PM,41.0,26.6,57,30.10,10.0,North,8.1,-,N/A,,Scattered Clouds,350,2014-02-01 22:35:00
3:55 PM,41.0,24.8,53,30.10,10.0,North,9.2,-,N/A,,Scattered Clouds,360,2014-02-01 22:55:00
4:15 PM,39.2,24.8,56,30.10,10.0,NNE,8.1,-,N/A,,Mostly Cloudy,30,2014-02-01 23:15:00
4:35 PM,39.2,23.0,52,30.11,10.0,North,5.8,-,N/A,,Overcast,10,2014-02-01 23:35:00
4:55 PM,39.2,24.8,56,30.11,10.0,NNE,3.5,-,N/A,,Overcast,20,2014-02-01 23:55:00
5:15 PM,39.2,24.8,56,30.11,10.0,Calm,Calm,-,N/A,,Overcast,0,2014-02-02 00:15:00
5:35 PM,37.4,23.0,56,30.11,10.0,Calm,Calm,-,N/A,,Overcast,0,2014-02-02 00:35:00
5:55 PM,37.4,21.2,52,30.11,10.0,Calm,Calm,-,N/A,,Overcast,0,2014-02-02 00:55:00
6:15 PM,37.4,23.0,56,30.11,10.0,Calm,Calm,-,N/A,,Overcast,0,2014-02-02 01:15:00
6:35 PM,37.4,23.0,56,30.11,10.0,Calm,Calm,-,N/A,,Overcast,0,2014-02-02 01:35:00
6:55 PM,37.4,21.2,52,30.11,10.0,Calm,Calm,-,N/A,,Overcast,0,2014-02-02 01:55:00
7:15 PM,37.4,23.0,56,30.11,10.0,Calm,Calm,-,N/A,,Overcast,0,2014-02-02 02:15:00
7:35 PM,35.6,21.2,56,30.11,10.0,SW,3.5,-,N/A,,Overcast,220,2014-02-02 02:35:00
7:55 PM,35.6,21.2,56,30.11,10.0,Calm,Calm,-,N/A,,Overcast,0,2014-02-02 02:55:00
8:15 PM,35.6,21.2,56,30.10,10.0,Calm,Calm,-,N/A,,Overcast,0,2014-02-02 03:15:00
8:35 PM,33.8,21.2,60,30.10,10.0,ESE,4.6,-,N/A,,Scattered Clouds,120,2014-02-02 03:35:00
8:55 PM,33.8,21.2,60,30.09,10.0,SE,4.6,-,N/A,,Scattered Clouds,130,2014-02-02 03:55:00
9:15 PM,33.8,21.2,60,30.09,10.0,South,4.6,-,N/A,,Overcast,190,2014-02-02 04:15:00
9:35 PM,32.0,21.2,64,30.09,10.0,South,3.5,-,N/A,,Mostly Cloudy,170,2014-02-02 04:35:00
9:55 PM,30.2,21.2,69,30.09,10.0,South,4.6,-,N/A,,Partly Cloudy,180,2014-02-02 04:55:00
10:15 PM,32.0,21.2,64,30.09,10.0,South,3.5,-,N/A,,Clear,180,2014-02-02 05:15:00
10:35 PM,32.0,23.0,69,30.09,10.0,Calm,Calm,-,N/A,,Clear,0,2014-02-02 05:35:00
10:55 PM,30.2,23.0,75,30.09,10.0,East,3.5,-,N/A,,Clear,100,2014-02-02 05:55:00
11:15 PM,30.2,21.2,69,30.08,10.0,East,3.5,-,N/A,,Scattered Clouds,90,2014-02-02 06:15:00
11:35 PM,30.2,21.2,69,30.08,10.0,East,4.6,-,N/A,,Partly Cloudy,90,2014-02-02 06:35:00
11:55 PM,30.2,21.2,69,30.08,10.0,East,4.6,-,N/A,,Scattered Clouds,100,2014-02-02 06:55:00